User: anonymous   Login
Location: Thompson
(55.7500°N, 97.8670°W)
Time: 06:19:41
(UTC-05:00)
Language:

Cosmos 1833 Rocket - Orbit

View from above orbital plane
View from above orbital plane
View from above satellite
View from above satellite

Ground track
Ground track

The orbit data is extracted from the following two-line orbital elements,

1 17590U 87027B   15089.83775270 -.00000055  00000-0 -34808-5 0  9998
2 17590 071.0034 054.1902 0002709 104.7895 255.3529 14.16687509449490
Epoch (UTC): 30 March 2015 20:06:21
Eccentricity: 0.0002709
inclination: 71.0034°
perigee height: 834 km
apogee height: 838 km
right ascension of ascending node: 54.1902°
argument of perigee: 104.7895°
revolutions per day: 14.16687509
mean anomaly at epoch: 255.3529°
orbit number at epoch: 44949

The dashed part of the orbit path shows where the satellite is in the earth's shadow,  

DLR